Weather History for Bozeman, MT

Change the Weather History Date:

Wednesday, April 16, 2014

  Actual Average Record
Temperature  
Mean Temperature 41 °F 45 °F  
Max Temperature 50 °F 59 °F 78 °F (1988)
Min Temperature 31 °F 31 °F 13 °F (1964)
Degree Days  
Heating Degree Days 24    
Month to date heating degree days 390  
Since 1 July heating degree days 7376  
Cooling Degree Days 0    
Month to date cooling degree days 0  
Year to date cooling degree days 0  
Moisture  
Dew Point 25 °F    
Average Humidity 57    
Maximum Humidity 82    
Minimum Humidity 31    
Precipitation  
Precipitation 0.01 in 0.06 in 0.53 in (1965)
Month to date precipitation 0.07 0.80  
Year to date precipitation 2.51 2.65  
Snow  
Snow T in 0.20 in 4.00 in (1959)
Month to date snowfall 0.3 4.6  
Since 1 July snowfall 29.8 34.6  
Snow Depth 0.00 in    
Sea Level Pressure  
Sea Level Pressure 30.01 in    
Wind  
Wind Speed 6 mph (East)    
Max Wind Speed 16 mph    
Max Gust Speed 24 mph    
Visibility 10 miles    
Events Snow    
T = Trace of Precipitation, MM = Missing Value Source: NWS Daily Summary

Daily Weather History Graph

Daily Weather History Graph

Search for Another Location

Airport:

Trip Planner

Search our weather history database for the weather conditions in past years. The results will help you decide how hot, cold, wet, or windy it might be!

Date:

Astronomy

Apr. 16, 2014 Rise Set
Actual Time 6:36 AM MDT 8:12 PM MDT
Civil Twilight 6:05 AM MDT 8:44 PM MDT
Nautical Twilight 5:27 AM MDT 9:22 PM MDT
Astronomical Twilight 4:46 AM MDT 10:03 PM MDT
Moon 10:05 PM MDT (4/16) 7:23 AM MDT (4/16)
Length of Visible Light 14h 38m
Length of Day
13h 35m
Full, 98% of the Moon is Illuminated
Apr 16
Full
Apr 22
Last Quarter
Apr 29
New
May 6
First Quarter
May 14
Full

Hourly Weather History & Observations

Time (MDT) Temp. Windchill Dew Point Humidity Pressure Visibility Wind Dir Wind Speed Gust Speed Precip Events Conditions
12:56 AM 35.1 °F 30.1 °F 30.0 °F 82% 29.95 in 10.0 mi East 5.8 mph - N/A   Overcast
1:56 AM 36.0 °F - 28.0 °F 73% 29.99 in 8.0 mi Calm Calm - 0.00 in Snow Light Snow
2:56 AM 34.0 °F 28.0 °F 28.9 °F 82% 30.01 in 10.0 mi East 6.9 mph - 0.00 in   Overcast
3:56 AM 33.1 °F 25.5 °F 28.9 °F 85% 30.01 in 10.0 mi SE 9.2 mph - N/A   Overcast
4:56 AM 33.1 °F 28.7 °F 27.0 °F 78% 30.01 in 10.0 mi SSE 4.6 mph - N/A   Mostly Cloudy
5:56 AM 32.0 °F 27.5 °F 25.0 °F 75% 30.03 in 10.0 mi South 4.6 mph - N/A   Overcast
6:56 AM 32.0 °F - 26.1 °F 79% 30.04 in 10.0 mi Calm Calm - N/A   Overcast
7:56 AM 36.0 °F 31.1 °F 26.1 °F 67% 30.03 in 10.0 mi SSW 5.8 mph - N/A   Overcast
8:56 AM 39.0 °F - 24.1 °F 55% 30.03 in 10.0 mi Calm Calm - N/A   Mostly Cloudy
9:56 AM 43.0 °F 41.3 °F 24.1 °F 47% 30.01 in 10.0 mi North 3.5 mph - N/A   Overcast
10:56 AM 44.1 °F 40.8 °F 21.9 °F 42% 30.01 in 10.0 mi West 5.8 mph - N/A   Overcast
11:56 AM 43.0 °F 37.2 °F 24.1 °F 47% 30.03 in 10.0 mi ENE 10.4 mph - N/A   Overcast
12:56 PM 42.1 °F 34.9 °F 28.9 °F 60% 30.02 in 10.0 mi ESE 13.8 mph - 0.01 in   Overcast
1:56 PM 45.0 °F 43.5 °F 19.9 °F 37% 30.01 in 10.0 mi Variable 3.5 mph - N/A   Overcast
2:56 PM 46.0 °F 41.0 °F 23.0 °F 40% 30.01 in 10.0 mi North 10.4 mph 19.6 mph N/A   Overcast
3:56 PM 46.9 °F - 21.0 °F 36% 30.00 in 10.0 mi NW 11.5 mph - N/A   Overcast
4:56 PM 48.9 °F - 19.9 °F 32% 29.98 in 10.0 mi NE 5.8 mph - N/A   Scattered Clouds
5:56 PM 48.0 °F - 21.0 °F 34% 29.99 in 10.0 mi NNW 10.4 mph - N/A   Mostly Cloudy
6:56 PM 46.0 °F 41.0 °F 21.9 °F 39% 30.00 in 10.0 mi NW 10.4 mph - N/A   Overcast
7:56 PM 45.0 °F 43.5 °F 23.0 °F 42% 29.99 in 10.0 mi NE 3.5 mph - N/A   Overcast
8:56 PM 45.0 °F - 19.9 °F 37% 30.00 in 10.0 mi Calm Calm - N/A   Overcast
9:56 PM 39.0 °F - 28.0 °F 65% 30.02 in 10.0 mi Calm Calm - N/A   Overcast
10:56 PM 41.0 °F 35.8 °F 28.0 °F 60% 30.01 in 10.0 mi South 8.1 mph - N/A   Overcast
11:56 PM 39.0 °F 33.4 °F 28.9 °F 67% 30.02 in 10.0 mi South 8.1 mph - N/A   Mostly Cloudy